Location: Melbourne
(37.8666°S, 145.1333°E)
Time: 11:41:18
(UTC+10:00)

Hubble Space Telescope - Visible Passes

Search period start: 22 June 2018 00:00
Search period end: 02 July 2018 00:00
Orbit: 537 x 541 km, 28.5° (Epoch: 21 June)

Date Brightness Start Highest point End Pass type
(mag) Time Alt. Az. Time Alt. Az. Time Alt. Az.
22 Jun 3.7 04:40:47 13° NE 04:40:47 13° NE 04:41:32 10° NE visible
22 Jun 2.7 06:16:09 11° NW 06:19:14 22° N 06:22:29 10° NE visible
23 Jun 4.0 04:31:07 11° NE 04:31:07 11° NE 04:31:15 10° NE visible
23 Jun 2.7 06:06:28 14° NW 06:08:48 21° N 06:11:59 10° NE visible
24 Jun 2.7 05:56:45 16° NW 05:58:21 20° N 06:01:26 10° NE visible
25 Jun 2.7 05:47:01 17° NNW 05:47:55 18° N 05:50:50 10° NE visible
26 Jun 2.9 05:37:17 17° NNW 05:37:28 17° NNW 05:40:10 10° NNE visible
27 Jun 3.1 05:27:33 14° N 05:27:33 14° N 05:29:22 10° NNE visible
28 Jun 3.4 05:17:50 11° N 05:17:50 11° N 05:18:25 10° N visible
